• In Hungary
  • List of Countries
  • For 7 days
  • Water Temperature
  • Satellite Maps
  • Weather Map
  • News
  • Weather Widgets
  • user-avatar
    Login

    Hourly Weather Maastricht

    Today, 23 September, Sunday

    Time Temperature Precipitation Wind Pressure Humidity
    00:00 +12°C° 0.4 mm 2 mps 755 mmHg 91%
    01:00 +12°C° 0.5 mm 2 mps 755 mmHg 91%
    02:00 +12°C° 0.5 mm 2 mps 754 mmHg 92%
    03:00 +12°C° 0.5 mm 2 mps 753 mmHg 92%
    04:00 +12°C° 0.5 mm 2 mps 753 mmHg 93%
    05:00 +12°C° 0.5 mm 2 mps 753 mmHg 93%
    06:00 +13°C° 0.5 mm 2 mps 752 mmHg 94%
    07:00 +13°C° 0.3 mm 2 mps 752 mmHg 94%
    08:00 +13°C° 0.3 mm 2 mps 752 mmHg 93%
    09:00 +13°C° 0.3 mm 2 mps 752 mmHg 93%
    10:00 +12°C° 2 mm 3 mps 752 mmHg 94%
    11:00 +12°C° 2 mm 4 mps 751 mmHg 94%
    12:00 +12°C° 2 mm 4 mps 751 mmHg 95%
    13:00 +11°C° 3.5 mm 4 mps 752 mmHg 94%
    14:00 +10°C° 3.5 mm 4 mps 752 mmHg 94%
    15:00 +8°C° 3.5 mm 4 mps 753 mmHg 93%
    16:00 +8°C° 0.5 mm 4 mps 754 mmHg 93%
    17:00 +8°C° 0.5 mm 4 mps 755 mmHg 93%
    18:00 +9°C° 0.5 mm 3 mps 757 mmHg 93%
    19:00 +9°C° 0.1 mm 3 mps 758 mmHg 93%
    20:00 +9°C° 0.1 mm 3 mps 759 mmHg 93%
    21:00 +8°C° 0.1 mm 3 mps 760 mmHg 93%
    22:00 +8°C° 0 mm 3 mps 761 mmHg 93%
    23:00 +8°C° 0 mm 2 mps 762 mmHg 93%

    Tomorrow, 24 September, Monday

    Time Temperature Precipitation Wind Pressure Humidity
    00:00 +8°C° 0 mm 2 mps 763 mmHg 93%
    01:00 +7°C° 0 mm 2 mps 764 mmHg 92%
    02:00 +7°C° 0 mm 2 mps 765 mmHg 92%
    03:00 +6°C° 0 mm 2 mps 766 mmHg 91%
    04:00 +6°C° 0 mm 2 mps 766 mmHg 91%
    05:00 +6°C° 0 mm 2 mps 767 mmHg 90%
    06:00 +7°C° 0 mm 1 mps 767 mmHg 90%
    07:00 +8°C° 0 mm 2 mps 768 mmHg 83%
    08:00 +10°C° 0 mm 2 mps 768 mmHg 77%
    09:00 +13°C° 0 mm 2 mps 769 mmHg 70%
    10:00 +13°C° 0.1 mm 3 mps 769 mmHg 68%
    11:00 +13°C° 0.1 mm 3 mps 769 mmHg 66%
    12:00 +13°C° 0.1 mm 4 mps 769 mmHg 65%
    13:00 +14°C° 0.1 mm 4 mps 769 mmHg 62%
    14:00 +14°C° 0.1 mm 4 mps 769 mmHg 60%
    15:00 +14°C° 0.1 mm 4 mps 769 mmHg 58%
    16:00 +13°C° 0 mm 3 mps 769 mmHg 64%
    17:00 +11°C° 0 mm 3 mps 770 mmHg 69%
    18:00 +10°C° 0 mm 2 mps 770 mmHg 75%
    19:00 +9°C° 0 mm 2 mps 770 mmHg 77%
    20:00 +8°C° 0 mm 2 mps 771 mmHg 79%
    21:00 +9°C° 0 mm 1 mps 772 mmHg 81%
    22:00 +8°C° 0 mm 1 mps 772 mmHg 83%
    23:00 +8°C° 0 mm 1 mps 772 mmHg 84%

    Day after tomorrow, 25 September, Tuesday

    Time Temperature Precipitation Wind Pressure Humidity
    00:00 +7°C° 0 mm 1 mps 772 mmHg 86%
    01:00 +7°C° 0 mm 1 mps 772 mmHg 86%
    02:00 +7°C° 0 mm 1 mps 772 mmHg 87%
    03:00 +7°C° 0 mm 1 mps 772 mmHg 88%
    04:00 +7°C° 0 mm 1 mps 772 mmHg 88%
    05:00 +7°C° 0 mm 1 mps 772 mmHg 88%
    06:00 +6°C° 0 mm 1 mps 772 mmHg 88%
    07:00 +9°C° 0 mm 1 mps 772 mmHg 79%
    08:00 +11°C° 0 mm 1 mps 773 mmHg 71%
    09:00 +13°C° 0 mm 2 mps 773 mmHg 62%
    10:00 +14°C° 0 mm 2 mps 772 mmHg 57%
    11:00 +15°C° 0 mm 2 mps 772 mmHg 52%
    12:00 +16°C° 0 mm 2 mps 772 mmHg 47%
    13:00 +16°C° 0 mm 2 mps 772 mmHg 46%
    14:00 +16°C° 0 mm 2 mps 771 mmHg 46%
    15:00 +16°C° 0 mm 3 mps 770 mmHg 46%
    16:00 +15°C° 0 mm 2 mps 770 mmHg 51%
    17:00 +13°C° 0 mm 2 mps 770 mmHg 56%
    18:00 +10°C° 0 mm 2 mps 770 mmHg 62%
    19:00 +10°C° 0 mm 2 mps 770 mmHg 63%
    20:00 +9°C° 0 mm 2 mps 770 mmHg 64%
    21:00 +8°C° 0 mm 2 mps 771 mmHg 65%
    22:00 +8°C° 0 mm 2 mps 770 mmHg 66%
    23:00 +8°C° 0 mm 2 mps 770 mmHg 67%

    26 September, Wednesday

    Time Temperature Precipitation Wind Pressure Humidity
    00:00 +7°C° 0 mm 2 mps 770 mmHg 68%
    01:00 +7°C° 0 mm 2 mps 769 mmHg 68%
    02:00 +7°C° 0 mm 2 mps 769 mmHg 68%
    03:00 +6°C° 0 mm 2 mps 769 mmHg 68%
    04:00 +7°C° 0 mm 1 mps 769 mmHg 68%
    05:00 +7°C° 0 mm 1 mps 769 mmHg 67%
    06:00 +7°C° 0 mm 1 mps 769 mmHg 66%
    07:00 +9°C° 0 mm 1 mps 769 mmHg 59%
    08:00 +12°C° 0 mm 1 mps 769 mmHg 52%
    09:00 +14°C° 0 mm 1 mps 768 mmHg 44%
    10:00 +16°C° 0 mm 1 mps 768 mmHg 41%
    11:00 +19°C° 0 mm 1 mps 768 mmHg 38%
    12:00 +20°C° 0 mm 1 mps 768 mmHg 35%
    13:00 +20°C° 0 mm 1 mps 767 mmHg 35%
    14:00 +20°C° 0 mm 1 mps 767 mmHg 36%
    15:00 +20°C° 0 mm 1 mps 767 mmHg 36%
    16:00 +18°C° 0 mm 1 mps 767 mmHg 42%
    17:00 +15°C° 0 mm 1 mps 767 mmHg 47%
    18:00 +13°C° 0 mm 1 mps 767 mmHg 53%
    19:00 +12°C° 0 mm 1 mps 767 mmHg 55%
    20:00 +12°C° 0 mm 1 mps 767 mmHg 56%
    21:00 +11°C° 0 mm 1 mps 767 mmHg 58%
    22:00 +11°C° 0 mm 1 mps 767 mmHg 59%
    23:00 +11°C° 0 mm 1 mps 767 mmHg 61%

    27 September, Thursday

    Time Temperature Precipitation Wind Pressure Humidity
    00:00 +10°C° 0 mm 1 mps 767 mmHg 62%
    01:00 +10°C° 0 mm 1 mps 767 mmHg 63%
    02:00 +10°C° 0 mm 1 mps 767 mmHg 64%
    03:00 +10°C° 0 mm 1 mps 767 mmHg 65%
    04:00 +10°C° 0 mm 1 mps 767 mmHg 65%
    05:00 +9°C° 0 mm 1 mps 766 mmHg 66%
    06:00 +9°C° 0 mm 1 mps 766 mmHg 66%
    07:00 +12°C° 0 mm 1 mps 766 mmHg 60%
    08:00 +14°C° 0 mm 1 mps 766 mmHg 54%
    09:00 +18°C° 0 mm 1 mps 766 mmHg 48%
    10:00 +19°C° 0 mm 1 mps 766 mmHg 45%
    11:00 +21°C° 0 mm 1 mps 765 mmHg 41%
    12:00 +22°C° 0 mm 1 mps 765 mmHg 37%
    13:00 +22°C° 0 mm 1 mps 764 mmHg 39%
    14:00 +23°C° 0 mm 1 mps 764 mmHg 40%
    15:00 +23°C° 0 mm 1 mps 763 mmHg 42%
    16:00 +21°C° 0 mm 1 mps 763 mmHg 49%
    17:00 +19°C° 0 mm 1 mps 763 mmHg 56%
    18:00 +15°C° 0 mm 1 mps 762 mmHg 63%
    19:00 +15°C° 0 mm 1 mps 762 mmHg 66%
    20:00 +15°C° 0 mm 1 mps 762 mmHg 68%
    21:00 +14°C° 0 mm 2 mps 762 mmHg 71%
    22:00 +14°C° 0 mm 2 mps 762 mmHg 73%
    23:00 +14°C° 0 mm 2 mps 761 mmHg 76%

    28 September, Friday

    Time Temperature Precipitation Wind Pressure Humidity
    00:00 +14°C° 0 mm 2 mps 761 mmHg 78%
    01:00 +14°C° 0 mm 2 mps 760 mmHg 79%
    02:00 +14°C° 0 mm 2 mps 760 mmHg 80%
    03:00 +14°C° 0 mm 2 mps 760 mmHg 80%
    04:00 +14°C° 0 mm 2 mps 759 mmHg 81%
    05:00 +14°C° 0 mm 2 mps 759 mmHg 81%
    06:00 +14°C° 0 mm 2 mps 759 mmHg 81%
    07:00 +16°C° 0 mm 2 mps 759 mmHg 75%
    08:00 +18°C° 0 mm 2 mps 758 mmHg 69%
    09:00 +20°C° 0 mm 2 mps 758 mmHg 63%
    10:00 +23°C° 0 mm 2 mps 757 mmHg 60%
    11:00 +24°C° 0 mm 2 mps 757 mmHg 57%
    12:00 +25°C° 0 mm 2 mps 756 mmHg 54%
    13:00 +25°C° 0 mm 3 mps 756 mmHg 55%
    14:00 +25°C° 0 mm 3 mps 755 mmHg 55%
    15:00 +25°C° 0 mm 3 mps 755 mmHg 56%
    16:00 +23°C° 0.1 mm 2 mps 754 mmHg 63%
    17:00 +20°C° 0.1 mm 2 mps 754 mmHg 71%
    18:00 +19°C° 0.1 mm 2 mps 754 mmHg 78%
    19:00 +18°C° 0.4 mm 2 mps 754 mmHg 83%
    20:00 +17°C° 0.4 mm 2 mps 754 mmHg 88%
    21:00 +16°C° 0.4 mm 2 mps 754 mmHg 92%
    22:00 +15°C° 0.7 mm 2 mps 753 mmHg 93%
    23:00 +15°C° 0.7 mm 2 mps 753 mmHg 94%
    Show more